TimeEST,TemperatureF,Dew PointF,Humidity,Sea Level PressureIn,VisibilityMPH,Wind Direction,Wind SpeedMPH,Gust SpeedMPH,PrecipitationIn,Events,Conditions,WindDirDegrees,DateUTC
12:10 AM,39.0,37.0,93,30.08,3.0,North,5.8,-,0.01,Rain,Light Rain,350,2013-12-07 05:10:00
12:21 AM,39.0,37.0,93,30.08,4.0,Variable,5.8,-,0.02,Rain,Light Rain,0,2013-12-07 05:21:00
12:36 AM,37.9,36.0,93,30.08,4.0,Variable,5.8,-,0.03,Rain,Light Rain,0,2013-12-07 05:36:00
12:52 AM,37.9,36.0,93,30.07,4.0,NNW,4.6,-,0.03,Rain,Light Rain,340,2013-12-07 05:52:00
1:05 AM,37.9,36.0,93,30.09,5.0,Variable,5.8,-,0.00,Rain,Light Rain,0,2013-12-07 06:05:00
1:32 AM,39.0,37.0,93,30.07,4.0,Variable,5.8,-,0.02,Rain,Light Rain,0,2013-12-07 06:32:00
1:43 AM,37.9,36.0,93,30.05,4.0,Variable,6.9,-,0.03,Rain,Light Rain,0,2013-12-07 06:43:00
1:52 AM,37.9,36.0,93,30.10,4.0,NNW,6.9,-,0.05,Rain,Rain,330,2013-12-07 06:52:00
2:29 AM,37.9,36.0,93,30.07,4.0,Variable,4.6,-,0.08,Rain,Rain,0,2013-12-07 07:29:00
2:36 AM,37.9,36.0,93,30.05,4.0,Variable,5.8,-,0.10,Rain,Heavy Rain,0,2013-12-07 07:36:00
2:52 AM,37.9,36.0,93,30.07,6.0,North,5.8,-,0.13,Rain,Light Rain,360,2013-12-07 07:52:00
3:03 AM,37.9,36.0,93,30.05,10.0,Variable,4.6,-,0.00,Rain,Light Rain,0,2013-12-07 08:03:00
3:22 AM,37.9,36.0,93,30.06,10.0,North,8.1,-,0.00,Rain,Light Rain,350,2013-12-07 08:22:00
3:31 AM,37.9,36.0,93,30.06,10.0,Variable,5.8,-,0.00,Rain,Light Rain,0,2013-12-07 08:31:00
3:52 AM,37.9,36.0,93,30.06,6.0,Variable,5.8,-,0.00,Rain,Light Rain,0,2013-12-07 08:52:00
4:08 AM,37.9,36.0,93,30.10,4.0,NW,6.9,-,0.01,Rain,Rain,320,2013-12-07 09:08:00
4:15 AM,37.9,36.0,93,30.10,3.0,Variable,5.8,-,0.02,Rain,Rain,0,2013-12-07 09:15:00
4:22 AM,37.9,36.0,93,30.11,2.5,NNW,5.8,-,0.03,Rain,Light Rain,330,2013-12-07 09:22:00
4:31 AM,37.9,36.0,93,30.11,3.0,NNW,8.1,-,0.04,Rain,Light Rain,340,2013-12-07 09:31:00
4:40 AM,37.9,36.0,93,30.11,2.5,Variable,6.9,-,0.04,Rain,Light Rain,0,2013-12-07 09:40:00
4:50 AM,37.4,35.6,93,30.10,3.0,Variable,4.6,-,0.04,Rain,Light Rain,0,2013-12-07 09:50:00
4:52 AM,37.9,37.0,97,30.11,3.0,Variable,6.9,-,0.04,Rain,Light Rain,0,2013-12-07 09:52:00
5:07 AM,37.9,36.0,93,30.10,5.0,North,8.1,-,0.02,Rain,Light Rain,350,2013-12-07 10:07:00
5:39 AM,37.9,36.0,93,30.11,4.0,Variable,5.8,-,0.02,Rain,Light Rain,0,2013-12-07 10:39:00
5:52 AM,37.9,36.0,93,30.12,4.0,Variable,6.9,-,0.02,Rain,Light Rain,0,2013-12-07 10:52:00
6:15 AM,37.9,36.0,93,30.13,-9999.0,Variable,6.9,-,0.00,Rain,Light Rain,0,2013-12-07 11:15:00
6:36 AM,37.9,36.0,93,30.13,8.0,Calm,Calm,-,0.00,,Overcast,0,2013-12-07 11:36:00
6:52 AM,37.9,36.0,93,30.15,5.0,NNW,5.8,-,0.00,,Overcast,340,2013-12-07 11:52:00
7:21 AM,37.9,36.0,93,30.15,4.0,North,6.9,-,0.00,Rain,Light Rain,350,2013-12-07 12:21:00
7:52 AM,37.9,36.0,93,30.16,6.0,NNW,6.9,-,0.00,,Overcast,340,2013-12-07 12:52:00
8:44 AM,37.0,35.1,93,30.19,10.0,Variable,4.6,-,0.00,,Overcast,0,2013-12-07 13:44:00
8:52 AM,37.0,34.0,89,30.20,10.0,Variable,5.8,-,0.00,,Overcast,0,2013-12-07 13:52:00
9:52 AM,37.9,33.1,83,30.21,10.0,NNW,6.9,-,N/A,,Overcast,330,2013-12-07 14:52:00
10:27 AM,39.0,30.9,73,30.19,10.0,Variable,4.6,-,N/A,,Overcast,0,2013-12-07 15:27:00
10:52 AM,39.0,30.9,73,30.19,10.0,NNW,8.1,-,N/A,,Overcast,330,2013-12-07 15:52:00
11:52 AM,41.0,30.0,65,30.20,10.0,NW,8.1,-,N/A,,Overcast,320,2013-12-07 16:52:00
12:52 PM,39.0,30.0,70,30.21,10.0,Variable,6.9,-,N/A,,Overcast,0,2013-12-07 17:52:00
1:01 PM,39.0,30.0,70,30.20,10.0,NNW,6.9,-,N/A,,Overcast,330,2013-12-07 18:01:00
1:52 PM,39.9,28.9,65,30.22,10.0,NNW,8.1,-,N/A,,Overcast,330,2013-12-07 18:52:00
2:02 PM,39.9,28.0,63,30.21,10.0,NW,9.2,18.4,N/A,,Overcast,310,2013-12-07 19:02:00
2:45 PM,39.9,28.0,63,30.22,10.0,NNW,8.1,19.6,N/A,,Overcast,340,2013-12-07 19:45:00
2:52 PM,39.9,28.0,63,30.23,10.0,NNW,10.4,19.6,N/A,,Overcast,340,2013-12-07 19:52:00
3:52 PM,37.9,25.0,60,30.26,10.0,NW,8.1,-,N/A,,Clear,310,2013-12-07 20:52:00
4:52 PM,37.0,26.1,65,30.30,10.0,Variable,4.6,-,N/A,,Clear,0,2013-12-07 21:52:00
5:52 PM,37.0,25.0,62,30.32,10.0,Variable,3.5,-,N/A,,Clear,0,2013-12-07 22:52:00
6:52 PM,36.0,23.0,59,30.34,10.0,WNW,8.1,-,N/A,,Scattered Clouds,300,2013-12-07 23:52:00
7:52 PM,36.0,19.9,52,30.37,10.0,Variable,6.9,-,N/A,,Partly Cloudy,0,2013-12-08 00:52:00
8:52 PM,35.1,19.0,52,30.39,10.0,NNW,8.1,17.3,N/A,,Partly Cloudy,330,2013-12-08 01:52:00
9:52 PM,35.1,17.1,48,30.41,10.0,Variable,6.9,20.7,N/A,,Clear,0,2013-12-08 02:52:00
10:52 PM,34.0,17.1,50,30.43,10.0,Variable,5.8,-,N/A,,Partly Cloudy,0,2013-12-08 03:52:00
11:52 PM,34.0,17.1,50,30.44,10.0,Variable,5.8,-,N/A,,Partly Cloudy,0,2013-12-08 04:52:00